AAL1015 KDFW-KTUS

Flight info

Callsign AAL1015
Flight time 2h 10m
Altitude 36000
Route WSTEX2 CIKAN ELP ZONNA2
Aircraft A319/M-SDE3FGHIRWY/LB1

Departure

Time 2026-05-06 23:57
Airport Dallas Fort Worth International Airport (KDFW)

Arrival

Time 2026-05-07 02:07
Airport Tucson International Airport (KTUS)
Time Latitude Longitude Altitude Speed Heading
2026-05-06 23:22 32.90269 -97.04477 596 ft 0 kts 44°
2026-05-06 23:47 32.90267 -97.04480 596 ft 3 kts 44°
2026-05-06 23:47 32.90249 -97.04501 596 ft 3 kts 44°
2026-05-06 23:47 32.90232 -97.04518 596 ft 4 kts 16°
2026-05-06 23:48 32.90210 -97.04515 596 ft 4 kts 322°
2026-05-06 23:48 32.90191 -97.04494 596 ft 4 kts 314°
2026-05-06 23:48 32.90174 -97.04473 596 ft 2 kts 314°
2026-05-06 23:48 32.90156 -97.04453 596 ft 4 kts 321°
2026-05-06 23:49 32.90137 -97.04433 596 ft 4 kts 294°
2026-05-06 23:49 32.90134 -97.04408 596 ft 4 kts 270°
2026-05-06 23:49 32.90134 -97.04399 596 ft 0 kts 270°
2026-05-06 23:51 32.90134 -97.04406 596 ft 4 kts 270°
2026-05-06 23:51 32.90134 -97.04528 597 ft 18 kts 270°
2026-05-06 23:52 32.90133 -97.04684 597 ft 20 kts 269°
2026-05-06 23:52 32.90095 -97.04763 598 ft 14 kts 186°
2026-05-06 23:52 32.89970 -97.04762 599 ft 19 kts 180°
2026-05-06 23:52 32.89807 -97.04762 597 ft 28 kts 180°
2026-05-06 23:53 32.89611 -97.04764 598 ft 28 kts 180°
2026-05-06 23:53 32.89410 -97.04766 595 ft 29 kts 180°
2026-05-06 23:53 32.89206 -97.04767 595 ft 29 kts 180°
2026-05-06 23:53 32.88996 -97.04767 590 ft 31 kts 180°
2026-05-06 23:54 32.88783 -97.04768 591 ft 30 kts 180°
2026-05-06 23:54 32.88567 -97.04769 587 ft 32 kts 180°
2026-05-06 23:54 32.88466 -97.04797 588 ft 12 kts 202°
2026-05-06 23:54 32.88376 -97.04808 589 ft 15 kts 180°
2026-05-06 23:55 32.88200 -97.04807 587 ft 31 kts 180°
2026-05-06 23:55 32.88009 -97.04810 587 ft 23 kts 180°
2026-05-06 23:55 32.87909 -97.04839 586 ft 12 kts 258°
2026-05-06 23:55 32.87914 -97.04953 585 ft 16 kts 270°
2026-05-06 23:56 32.87915 -97.05081 587 ft 11 kts 282°
2026-05-06 23:56 32.87969 -97.05091 588 ft 3 kts 359°
2026-05-06 23:56 32.87970 -97.05091 588 ft 0 kts 359°
2026-05-06 23:56 32.88162 -97.05092 591 ft 65 kts
2026-05-06 23:57 32.88851 -97.05087 587 ft 130 kts
2026-05-06 23:57 32.89899 -97.05077 656 ft 171 kts
2026-05-06 23:57 32.91085 -97.05085 1329 ft 171 kts
2026-05-06 23:57 32.92277 -97.05122 2040 ft 172 kts 359°
2026-05-06 23:58 32.93502 -97.05175 2574 ft 186 kts 359°
2026-05-06 23:58 32.94869 -97.05356 2852 ft 214 kts 344°
2026-05-06 23:58 32.96314 -97.06158 3240 ft 241 kts 335°
2026-05-06 23:58 32.97867 -97.06994 4071 ft 248 kts 339°
2026-05-06 23:59 32.99520 -97.07678 4918 ft 256 kts 341°
2026-05-06 23:59 33.01084 -97.08711 5742 ft 263 kts 316°
2026-05-06 23:59 33.01997 -97.10582 6655 ft 266 kts 282°
2026-05-06 23:59 33.01999 -97.12781 7668 ft 266 kts 261°
2026-05-07 00:00 33.01616 -97.14933 8657 ft 266 kts 256°
2026-05-07 00:00 33.01180 -97.17080 9549 ft 268 kts 256°
2026-05-07 00:00 33.00744 -97.19279 10106 ft 276 kts 256°
2026-05-07 00:00 33.00463 -97.20796 10366 ft 291 kts 257°
2026-05-07 00:01 32.99673 -97.24024 10863 ft 315 kts 243°
2026-05-07 00:01 32.98485 -97.26234 11623 ft 319 kts 233°
2026-05-07 00:01 32.97133 -97.28332 12543 ft 318 kts 233°
2026-05-07 00:01 32.95791 -97.30422 13433 ft 317 kts 233°
2026-05-07 00:02 32.94452 -97.32503 14285 ft 317 kts 233°
2026-05-07 00:02 32.93126 -97.34560 15074 ft 318 kts 233°
2026-05-07 00:02 32.91754 -97.36680 15866 ft 319 kts 233°
2026-05-07 00:02 32.90405 -97.38759 16606 ft 317 kts 233°
2026-05-07 00:03 32.89066 -97.40823 17317 ft 320 kts 234°
2026-05-07 00:03 32.87702 -97.42923 18056 ft 321 kts 234°
2026-05-07 00:03 32.86335 -97.45027 18796 ft 322 kts 234°
2026-05-07 00:03 32.84960 -97.47141 19508 ft 324 kts 234°
2026-05-07 00:04 32.83578 -97.49265 20150 ft 325 kts 234°
2026-05-07 00:04 32.82195 -97.51393 20733 ft 326 kts 234°
2026-05-07 00:04 32.80798 -97.53545 21280 ft 331 kts 234°
2026-05-07 00:04 32.79381 -97.55718 21868 ft 333 kts 234°
2026-05-07 00:05 32.77958 -97.57895 22406 ft 335 kts 234°
2026-05-07 00:05 32.76520 -97.60090 22929 ft 338 kts 234°
2026-05-07 00:05 32.75070 -97.62301 23452 ft 340 kts 235°
2026-05-07 00:05 32.73612 -97.64526 23935 ft 343 kts 235°
2026-05-07 00:06 32.72143 -97.66769 24424 ft 345 kts 235°
2026-05-07 00:06 32.70669 -97.69020 24881 ft 346 kts 235°
2026-05-07 00:06 32.69212 -97.71301 25307 ft 347 kts 238°
2026-05-07 00:06 32.68115 -97.73841 25701 ft 348 kts 249°
2026-05-07 00:07 32.67554 -97.76644 26101 ft 354 kts 260°
2026-05-07 00:07 32.67334 -97.79562 26532 ft 356 kts 261°
2026-05-07 00:07 32.67111 -97.82498 26973 ft 358 kts 261°
2026-05-07 00:07 32.66882 -97.85450 27405 ft 360 kts 261°
2026-05-07 00:08 32.66648 -97.88415 27821 ft 361 kts 261°
2026-05-07 00:08 32.66412 -97.91394 28230 ft 364 kts 261°
2026-05-07 00:08 32.66175 -97.94389 28628 ft 365 kts 261°
2026-05-07 00:08 32.65939 -97.97356 28998 ft 367 kts 261°
2026-05-07 00:09 32.65698 -98.00377 29369 ft 369 kts 260°
2026-05-07 00:09 32.65455 -98.03418 29725 ft 371 kts 260°
2026-05-07 00:09 32.65208 -98.06510 30072 ft 373 kts 260°
2026-05-07 00:09 32.64968 -98.09532 30444 ft 374 kts 260°
2026-05-07 00:10 32.64724 -98.12608 30789 ft 375 kts 260°
2026-05-07 00:10 32.64480 -98.15693 31135 ft 376 kts 260°
2026-05-07 00:10 32.64235 -98.18767 31616 ft 373 kts 260°
2026-05-07 00:10 32.63991 -98.21824 32117 ft 370 kts 260°
2026-05-07 00:11 32.63749 -98.24852 32595 ft 368 kts 260°
2026-05-07 00:11 32.63506 -98.27862 33058 ft 365 kts 259°
2026-05-07 00:11 32.63263 -98.30854 33525 ft 363 kts 259°
2026-05-07 00:11 32.63021 -98.33828 33982 ft 361 kts 259°
2026-05-07 00:12 32.62779 -98.36781 34433 ft 359 kts 259°
2026-05-07 00:12 32.62537 -98.39715 34900 ft 356 kts 259°
2026-05-07 00:12 32.62298 -98.42628 35341 ft 354 kts 259°
2026-05-07 00:12 32.62063 -98.45521 35770 ft 351 kts 260°
2026-05-07 00:13 32.61829 -98.48407 35992 ft 351 kts 259°
2026-05-07 00:13 32.61592 -98.51272 36024 ft 348 kts 259°
2026-05-07 00:13 32.61116 -98.56959 36029 ft 346 kts 259°
2026-05-07 00:14 32.60722 -98.61669 36036 ft 345 kts 259°
2026-05-07 00:14 32.60244 -98.67335 36035 ft 345 kts 259°
2026-05-07 00:15 32.59766 -98.72982 36042 ft 344 kts 259°
2026-05-07 00:15 32.59206 -98.79531 36049 ft 343 kts 259°
2026-05-07 00:16 32.58803 -98.84243 36046 ft 343 kts 259°
2026-05-07 00:16 32.58327 -98.89870 36038 ft 343 kts 259°
2026-05-07 00:17 32.57845 -98.95460 36037 ft 343 kts 259°
2026-05-07 00:17 32.57354 -99.01081 36037 ft 343 kts 259°
2026-05-07 00:18 32.56860 -99.06703 36037 ft 343 kts 259°
2026-05-07 00:18 32.56368 -99.12327 36038 ft 343 kts 259°
2026-05-07 00:19 32.55874 -99.17952 36038 ft 343 kts 259°
2026-05-07 00:19 32.55382 -99.23565 36037 ft 343 kts 259°
2026-05-07 00:20 32.54880 -99.29186 36037 ft 343 kts 259°
2026-05-07 00:20 32.54391 -99.34804 36035 ft 343 kts 259°
2026-05-07 00:21 32.54040 -99.40453 36036 ft 344 kts 261°
2026-05-07 00:21 32.53737 -99.46116 36035 ft 344 kts 261°
2026-05-07 00:22 32.53416 -99.51775 36032 ft 345 kts 260°
2026-05-07 00:22 32.53079 -99.57428 36027 ft 344 kts 260°
2026-05-07 00:23 32.52734 -99.63051 36027 ft 345 kts 260°
2026-05-07 00:23 32.52379 -99.68758 36028 ft 345 kts 260°
2026-05-07 00:24 32.52027 -99.74391 36026 ft 345 kts 260°
2026-05-07 00:24 32.51670 -99.80066 36025 ft 346 kts 260°
2026-05-07 00:25 32.51313 -99.85746 36019 ft 346 kts 260°
2026-05-07 00:25 32.50958 -99.91440 36016 ft 346 kts 260°
2026-05-07 00:26 32.50598 -99.97125 36014 ft 346 kts 260°
2026-05-07 00:26 32.50232 -100.02809 36014 ft 346 kts 260°
2026-05-07 00:27 32.49864 -100.08498 36013 ft 347 kts 259°
2026-05-07 00:27 32.49493 -100.14198 36017 ft 347 kts 259°
2026-05-07 00:28 32.49119 -100.19894 36022 ft 347 kts 259°
2026-05-07 00:28 32.48741 -100.25590 36026 ft 347 kts 259°
2026-05-07 00:29 32.48354 -100.31283 36035 ft 347 kts 259°
2026-05-07 00:30 32.47387 -100.42601 36060 ft 346 kts 258°
2026-05-07 00:30 32.46873 -100.48258 36062 ft 346 kts 258°
2026-05-07 00:31 32.46362 -100.53917 36061 ft 345 kts 258°
2026-05-07 00:31 32.45851 -100.59569 36062 ft 345 kts 258°
2026-05-07 00:32 32.45345 -100.65220 36064 ft 345 kts 258°
2026-05-07 00:32 32.44840 -100.70869 36062 ft 345 kts 258°
2026-05-07 00:33 32.44327 -100.76514 36057 ft 345 kts 258°
2026-05-07 00:33 32.43814 -100.82161 36056 ft 345 kts 258°
2026-05-07 00:34 32.43297 -100.87803 36055 ft 345 kts 258°
2026-05-07 00:34 32.42769 -100.93445 36047 ft 345 kts 258°
2026-05-07 00:35 32.42242 -100.99093 36039 ft 345 kts 258°
2026-05-07 00:35 32.41717 -101.04747 36037 ft 346 kts 258°
2026-05-07 00:36 32.41187 -101.10402 36032 ft 346 kts 258°
2026-05-07 00:36 32.40651 -101.16054 36030 ft 346 kts 258°
2026-05-07 00:37 32.40115 -101.21710 36028 ft 346 kts 258°
2026-05-07 00:37 32.39576 -101.27366 36025 ft 346 kts 257°
2026-05-07 00:38 32.39036 -101.32982 36020 ft 346 kts 257°
2026-05-07 00:38 32.38495 -101.38627 36014 ft 345 kts 257°
2026-05-07 00:39 32.37952 -101.44267 36002 ft 345 kts 257°
2026-05-07 00:39 32.37407 -101.49904 35998 ft 345 kts 257°
2026-05-07 00:40 32.36853 -101.55549 35995 ft 346 kts 257°
2026-05-07 00:40 32.36300 -101.61201 35997 ft 346 kts 257°
2026-05-07 00:41 32.35744 -101.66862 35992 ft 347 kts 257°
2026-05-07 00:41 32.35183 -101.72528 35998 ft 347 kts 257°
2026-05-07 00:42 32.34618 -101.78208 35996 ft 348 kts 257°
2026-05-07 00:42 32.34054 -101.83888 36001 ft 348 kts 257°
2026-05-07 00:43 32.33484 -101.89574 36003 ft 348 kts 257°
2026-05-07 00:43 32.32913 -101.95256 36003 ft 348 kts 257°
2026-05-07 00:44 32.32341 -102.00928 35998 ft 347 kts 257°
2026-05-07 00:44 32.31768 -102.06602 36000 ft 348 kts 257°
2026-05-07 00:45 32.31193 -102.12239 35996 ft 347 kts 257°
2026-05-07 00:45 32.30610 -102.17907 35995 ft 347 kts 257°
2026-05-07 00:46 32.30023 -102.23574 35998 ft 347 kts 257°
2026-05-07 00:46 32.29437 -102.29242 35995 ft 348 kts 257°
2026-05-07 00:47 32.28849 -102.34916 35997 ft 348 kts 257°
2026-05-07 00:47 32.28256 -102.40588 36004 ft 348 kts 257°
2026-05-07 00:48 32.27659 -102.46260 36008 ft 348 kts 257°
2026-05-07 00:48 32.27058 -102.51929 36013 ft 348 kts 257°
2026-05-07 00:49 32.26461 -102.57591 36015 ft 347 kts 257°
2026-05-07 00:49 32.25862 -102.63241 36016 ft 347 kts 257°
2026-05-07 00:50 32.25261 -102.68888 36016 ft 346 kts 257°
2026-05-07 00:50 32.24656 -102.74531 36015 ft 346 kts 257°
2026-05-07 00:51 32.24049 -102.80164 36011 ft 345 kts 257°
2026-05-07 00:51 32.23445 -102.85786 36012 ft 345 kts 257°
2026-05-07 00:52 32.22836 -102.91403 36010 ft 345 kts 257°
2026-05-07 00:52 32.22228 -102.97010 36007 ft 344 kts 257°
2026-05-07 00:53 32.21624 -103.02573 36003 ft 344 kts 256°
2026-05-07 00:53 32.21006 -103.08170 36002 ft 344 kts 256°
2026-05-07 00:54 32.20389 -103.13764 36002 ft 343 kts 256°
2026-05-07 00:54 32.19765 -103.19349 36000 ft 343 kts 256°
2026-05-07 00:55 32.19144 -103.24934 36002 ft 343 kts 256°
2026-05-07 00:55 32.18517 -103.30510 35991 ft 343 kts 256°
2026-05-07 00:56 32.17896 -103.36088 35990 ft 342 kts 256°
2026-05-07 00:56 32.17273 -103.41655 35989 ft 342 kts 256°
2026-05-07 00:57 32.16642 -103.47212 35982 ft 341 kts 256°
2026-05-07 00:57 32.16014 -103.52765 35980 ft 341 kts 256°
2026-05-07 00:58 32.15379 -103.58321 35974 ft 342 kts 256°
2026-05-07 00:58 32.14741 -103.63879 35975 ft 342 kts 256°
2026-05-07 00:59 32.13789 -103.72179 35974 ft 342 kts 256°
2026-05-07 01:00 32.13153 -103.77739 35972 ft 342 kts 256°
2026-05-07 01:00 32.12510 -103.83291 35971 ft 342 kts 256°
2026-05-07 01:01 32.11860 -103.88848 35971 ft 342 kts 256°
2026-05-07 01:01 32.11206 -103.94405 35971 ft 342 kts 256°
2026-05-07 01:02 32.10553 -103.99961 35972 ft 342 kts 256°
2026-05-07 01:02 32.09896 -104.05521 35973 ft 342 kts 256°
2026-05-07 01:03 32.09241 -104.11081 35974 ft 342 kts 256°
2026-05-07 01:03 32.08581 -104.16645 35976 ft 343 kts 256°
2026-05-07 01:04 32.07917 -104.22213 35978 ft 342 kts 256°
2026-05-07 01:04 32.07248 -104.27770 35980 ft 343 kts 256°
2026-05-07 01:05 32.06579 -104.33324 35983 ft 342 kts 256°
2026-05-07 01:05 32.05915 -104.38876 35990 ft 342 kts 256°
2026-05-07 01:06 32.05359 -104.43485 35993 ft 342 kts 256°
2026-05-07 01:06 32.04687 -104.49025 35992 ft 341 kts 256°
2026-05-07 01:07 32.04017 -104.54566 35992 ft 341 kts 256°
2026-05-07 01:07 32.03345 -104.60101 35998 ft 341 kts 256°
2026-05-07 01:08 32.02662 -104.65630 35992 ft 341 kts 256°
2026-05-07 01:08 32.01978 -104.71153 35992 ft 341 kts 256°
2026-05-07 01:09 32.01300 -104.76639 35995 ft 340 kts 256°
2026-05-07 01:09 32.00613 -104.82158 35984 ft 341 kts 256°
2026-05-07 01:10 31.99926 -104.87697 35985 ft 342 kts 256°
2026-05-07 01:10 31.99238 -104.93231 35979 ft 342 kts 255°
2026-05-07 01:11 31.98537 -104.98782 35972 ft 343 kts 255°
2026-05-07 01:11 31.97838 -105.04341 35977 ft 344 kts 255°
2026-05-07 01:12 31.97135 -105.09913 35981 ft 344 kts 255°
2026-05-07 01:12 31.96425 -105.15492 35985 ft 345 kts 255°
2026-05-07 01:13 31.95713 -105.21087 35993 ft 345 kts 255°
2026-05-07 01:13 31.94997 -105.26677 35993 ft 345 kts 255°
2026-05-07 01:14 31.94280 -105.32268 35992 ft 345 kts 255°
2026-05-07 01:14 31.93564 -105.37863 35995 ft 345 kts 255°
2026-05-07 01:15 31.92847 -105.43455 35999 ft 346 kts 255°
2026-05-07 01:15 31.92123 -105.49048 36000 ft 346 kts 255°
2026-05-07 01:16 31.91396 -105.54641 36001 ft 345 kts 255°
2026-05-07 01:16 31.90666 -105.60227 35995 ft 345 kts 255°
2026-05-07 01:17 31.89935 -105.65808 35998 ft 345 kts 255°
2026-05-07 01:17 31.89200 -105.71392 36000 ft 345 kts 255°
2026-05-07 01:18 31.88464 -105.76976 36003 ft 345 kts 255°
2026-05-07 01:18 31.87726 -105.82559 36008 ft 345 kts 255°
2026-05-07 01:19 31.86983 -105.88140 36014 ft 346 kts 255°
2026-05-07 01:19 31.86238 -105.93727 36012 ft 346 kts 255°
2026-05-07 01:20 31.85494 -105.99308 36011 ft 345 kts 255°
2026-05-07 01:20 31.84745 -106.04883 36012 ft 345 kts 255°
2026-05-07 01:21 31.83994 -106.10458 36015 ft 345 kts 255°
2026-05-07 01:21 31.83252 -106.15994 36020 ft 345 kts 255°
2026-05-07 01:22 31.82495 -106.21566 36021 ft 345 kts 255°
2026-05-07 01:22 31.81769 -106.27149 36020 ft 348 kts 258°
2026-05-07 01:22 31.81805 -106.30032 36021 ft 359 kts 268°
2026-05-07 01:23 31.82152 -106.32950 36024 ft 361 kts 268°
2026-05-07 01:23 31.82852 -106.38792 36028 ft 361 kts 268°
2026-05-07 01:24 31.83547 -106.44629 36026 ft 361 kts 268°
2026-05-07 01:24 31.84236 -106.50479 36024 ft 361 kts 268°
2026-05-07 01:25 31.84923 -106.56337 36030 ft 362 kts 268°
2026-05-07 01:25 31.85609 -106.62198 36033 ft 362 kts 268°
2026-05-07 01:26 31.86295 -106.68065 36042 ft 362 kts 268°
2026-05-07 01:26 31.86977 -106.73938 36058 ft 362 kts 268°
2026-05-07 01:27 31.87654 -106.79809 36057 ft 362 kts 268°
2026-05-07 01:27 31.88329 -106.85682 36056 ft 362 kts 268°
2026-05-07 01:28 31.89000 -106.91556 36048 ft 362 kts 268°
2026-05-07 01:28 31.89672 -106.97430 36047 ft 362 kts 268°
2026-05-07 01:29 31.90347 -107.03312 36057 ft 363 kts 268°
2026-05-07 01:29 31.91018 -107.09201 36048 ft 363 kts 268°
2026-05-07 01:30 31.91677 -107.15091 36044 ft 363 kts 268°
2026-05-07 01:30 31.92335 -107.20987 36054 ft 364 kts 268°
2026-05-07 01:31 31.92989 -107.26905 36053 ft 365 kts 268°
2026-05-07 01:31 31.93646 -107.32802 36056 ft 366 kts 268°
2026-05-07 01:32 31.94307 -107.38739 36060 ft 366 kts 268°
2026-05-07 01:32 31.94962 -107.44686 36059 ft 367 kts 268°
2026-05-07 01:33 31.95617 -107.50640 36065 ft 367 kts 268°
2026-05-07 01:33 31.96265 -107.56595 36068 ft 367 kts 268°
2026-05-07 01:34 31.96916 -107.62559 36069 ft 367 kts 268°
2026-05-07 01:34 31.97567 -107.68521 36071 ft 367 kts 268°
2026-05-07 01:35 31.98208 -107.74477 36073 ft 367 kts 268°
2026-05-07 01:35 31.98843 -107.80435 36076 ft 366 kts 268°
2026-05-07 01:36 31.99480 -107.86393 36078 ft 367 kts 269°
2026-05-07 01:36 32.00115 -107.92355 36081 ft 367 kts 268°
2026-05-07 01:37 32.00749 -107.98319 36082 ft 367 kts 268°
2026-05-07 01:37 32.01376 -108.04281 36084 ft 367 kts 268°
2026-05-07 01:38 32.02002 -108.10241 36082 ft 366 kts 268°
2026-05-07 01:38 32.02624 -108.16201 36082 ft 366 kts 268°
2026-05-07 01:39 32.03246 -108.22161 36083 ft 366 kts 268°
2026-05-07 01:39 32.03863 -108.28123 36083 ft 367 kts 268°
2026-05-07 01:40 32.04474 -108.34091 36089 ft 367 kts 268°
2026-05-07 01:40 32.05088 -108.40052 36089 ft 366 kts 268°
2026-05-07 01:41 32.05699 -108.46020 36089 ft 367 kts 268°
2026-05-07 01:41 32.06298 -108.51996 36089 ft 367 kts 268°
2026-05-07 01:42 32.06898 -108.57975 36086 ft 368 kts 268°
2026-05-07 01:42 32.07501 -108.63964 36084 ft 368 kts 268°
2026-05-07 01:43 32.08104 -108.69958 36084 ft 368 kts 268°
2026-05-07 01:43 32.08706 -108.75957 36085 ft 369 kts 268°
2026-05-07 01:44 32.09303 -108.81961 36042 ft 370 kts 268°
2026-05-07 01:44 32.09602 -108.84976 35787 ft 370 kts 268°
2026-05-07 01:44 32.09899 -108.87993 35536 ft 370 kts 268°
2026-05-07 01:44 32.10195 -108.91013 35107 ft 371 kts 268°
2026-05-07 01:45 32.10490 -108.94047 34407 ft 372 kts 269°
2026-05-07 01:45 32.10784 -108.97081 33665 ft 374 kts 269°
2026-05-07 01:45 32.11079 -109.00145 32802 ft 378 kts 269°
2026-05-07 01:45 32.11379 -109.03236 32152 ft 378 kts 269°
2026-05-07 01:46 32.11681 -109.06288 31691 ft 372 kts 269°
2026-05-07 01:46 32.11977 -109.09297 31178 ft 367 kts 269°
2026-05-07 01:46 32.12267 -109.12271 30681 ft 363 kts 269°
2026-05-07 01:46 32.12552 -109.15213 30186 ft 359 kts 269°
2026-05-07 01:47 32.12831 -109.18124 29702 ft 355 kts 269°
2026-05-07 01:47 32.13105 -109.21000 29234 ft 351 kts 269°
2026-05-07 01:47 32.13377 -109.23847 28744 ft 348 kts 269°
2026-05-07 01:47 32.13684 -109.26675 28237 ft 349 kts 273°
2026-05-07 01:48 32.14171 -109.29481 27733 ft 349 kts 274°
2026-05-07 01:48 32.14660 -109.32274 27235 ft 347 kts 275°
2026-05-07 01:48 32.15142 -109.35061 26736 ft 346 kts 275°
2026-05-07 01:48 32.15622 -109.37841 26253 ft 346 kts 275°
2026-05-07 01:49 32.16101 -109.40620 25769 ft 345 kts 275°
2026-05-07 01:49 32.16577 -109.43386 25300 ft 343 kts 276°
2026-05-07 01:49 32.17051 -109.46137 24843 ft 341 kts 276°
2026-05-07 01:49 32.17524 -109.48869 24401 ft 338 kts 277°
2026-05-07 01:50 32.17992 -109.51579 23965 ft 336 kts 277°
2026-05-07 01:50 32.18453 -109.54282 23560 ft 335 kts 277°
2026-05-07 01:50 32.18911 -109.56971 23148 ft 334 kts 277°
2026-05-07 01:50 32.19369 -109.59647 22742 ft 332 kts 277°
2026-05-07 01:51 32.19671 -109.61413 22478 ft 331 kts 278°
2026-05-07 01:51 32.20126 -109.64075 22076 ft 330 kts 278°
2026-05-07 01:51 32.20581 -109.66725 21659 ft 329 kts 278°
2026-05-07 01:51 32.20877 -109.69385 21250 ft 325 kts 270°
2026-05-07 01:52 32.20772 -109.72042 20851 ft 330 kts 261°
2026-05-07 01:52 32.20268 -109.74742 20434 ft 341 kts 254°
2026-05-07 01:52 32.19636 -109.77455 20010 ft 344 kts 254°
2026-05-07 01:52 32.19008 -109.80179 19580 ft 343 kts 255°
2026-05-07 01:53 32.18386 -109.82897 19156 ft 343 kts 255°
2026-05-07 01:53 32.17765 -109.85611 18730 ft 342 kts 255°
2026-05-07 01:53 32.17145 -109.88316 18304 ft 341 kts 255°
2026-05-07 01:53 32.16524 -109.91017 17881 ft 340 kts 255°
2026-05-07 01:54 32.15902 -109.93704 17435 ft 339 kts 255°
2026-05-07 01:54 32.15280 -109.96390 17014 ft 338 kts 255°
2026-05-07 01:54 32.14661 -109.99059 16584 ft 337 kts 255°
2026-05-07 01:54 32.14041 -110.01725 16167 ft 336 kts 255°
2026-05-07 01:55 32.13420 -110.04383 15756 ft 336 kts 254°
2026-05-07 01:55 32.12798 -110.07033 15339 ft 334 kts 254°
2026-05-07 01:55 32.12180 -110.09667 14924 ft 333 kts 254°
2026-05-07 01:55 32.11561 -110.12302 14508 ft 333 kts 254°
2026-05-07 01:56 32.10949 -110.14926 14096 ft 332 kts 254°
2026-05-07 01:56 32.10340 -110.17548 13677 ft 331 kts 254°
2026-05-07 01:56 32.09729 -110.20162 13261 ft 331 kts 254°
2026-05-07 01:56 32.09117 -110.22772 12852 ft 329 kts 254°
2026-05-07 01:57 32.08506 -110.25371 12451 ft 328 kts 253°
2026-05-07 01:57 32.07906 -110.27925 12305 ft 318 kts 254°
2026-05-07 01:57 32.07327 -110.30392 12179 ft 307 kts 254°
2026-05-07 01:57 32.06765 -110.32788 11988 ft 300 kts 254°
2026-05-07 01:58 32.06218 -110.35136 11828 ft 296 kts 254°
2026-05-07 01:58 32.05688 -110.37476 11532 ft 295 kts 255°
2026-05-07 01:58 32.05168 -110.39808 11227 ft 294 kts 255°
2026-05-07 01:58 32.04653 -110.42131 10907 ft 293 kts 255°
2026-05-07 01:59 32.04136 -110.44445 10596 ft 292 kts 255°
2026-05-07 01:59 32.03620 -110.46753 10276 ft 290 kts 256°
2026-05-07 01:59 32.03104 -110.49047 9966 ft 289 kts 256°
2026-05-07 01:59 32.02593 -110.51302 9661 ft 289 kts 256°
2026-05-07 02:00 32.02075 -110.53585 9352 ft 288 kts 256°
2026-05-07 02:00 32.01561 -110.55862 9037 ft 287 kts 257°
2026-05-07 02:00 32.01051 -110.58126 8730 ft 285 kts 257°
2026-05-07 02:00 32.00543 -110.60381 8422 ft 284 kts 257°
2026-05-07 02:01 32.00036 -110.62612 8116 ft 281 kts 257°
2026-05-07 02:01 31.99531 -110.64817 7815 ft 277 kts 256°
2026-05-07 02:01 31.99033 -110.66992 7519 ft 273 kts 256°
2026-05-07 02:01 31.98543 -110.69140 7229 ft 270 kts 256°
2026-05-07 02:02 31.98060 -110.71260 6932 ft 264 kts 256°
2026-05-07 02:02 31.97595 -110.73302 6649 ft 252 kts 256°
2026-05-07 02:02 31.97210 -110.75271 6371 ft 242 kts 268°
2026-05-07 02:02 31.97511 -110.77139 6121 ft 229 kts 298°
2026-05-07 02:03 31.98467 -110.78539 5870 ft 213 kts 315°
2026-05-07 02:03 31.99490 -110.79728 5616 ft 200 kts 315°
2026-05-07 02:03 32.00448 -110.80848 5355 ft 187 kts 315°
2026-05-07 02:03 32.01323 -110.81874 5146 ft 166 kts 315°
2026-05-07 02:04 32.02094 -110.82778 4946 ft 148 kts 314°
2026-05-07 02:04 32.02802 -110.83606 4769 ft 140 kts 315°
2026-05-07 02:04 32.03481 -110.84401 4606 ft 137 kts 315°
2026-05-07 02:04 32.04150 -110.85185 4444 ft 135 kts 314°
2026-05-07 02:05 32.04813 -110.85962 4255 ft 135 kts 314°
2026-05-07 02:05 32.05476 -110.86739 4063 ft 135 kts 314°
2026-05-07 02:05 32.06140 -110.87516 3868 ft 135 kts 317°
2026-05-07 02:05 32.06806 -110.88296 3664 ft 135 kts 317°
2026-05-07 02:06 32.07459 -110.89083 3486 ft 134 kts 315°
2026-05-07 02:06 32.08114 -110.89871 3301 ft 134 kts 317°
2026-05-07 02:06 32.08786 -110.90651 3097 ft 137 kts 319°
2026-05-07 02:06 32.09470 -110.91433 2906 ft 133 kts 319°
2026-05-07 02:07 32.10139 -110.92218 2729 ft 136 kts 318°
2026-05-07 02:07 32.11256 -110.93522 2625 ft 72 kts 314°
2026-05-07 02:07 32.11523 -110.93838 2616 ft 47 kts 316°
2026-05-07 02:08 32.11726 -110.94067 2609 ft 22 kts 320°
2026-05-07 02:08 32.11834 -110.94096 2607 ft 16 kts
2026-05-07 02:08 32.11948 -110.94098 2605 ft 14 kts 349°
2026-05-07 02:08 32.12027 -110.94108 2605 ft 11 kts 19°
2026-05-07 02:09 32.12103 -110.94090 2605 ft 12 kts
2026-05-07 02:09 32.12195 -110.94067 2604 ft 15 kts 33°
2026-05-07 02:09 32.12204 -110.94006 2604 ft 4 kts 156°
2026-05-07 02:09 32.12177 -110.93994 2605 ft 4 kts 158°
2026-05-07 02:10 32.12163 -110.93988 2606 ft 0 kts 158°